[[{"header":{"parameterUnit":"m.s-1","parameterCategory":1,"la1":30.2991,"la2":30.254,"lo1":-89.0895,"lo2":-89.0444,"dy":0.0017,"dx":0.0017,"nx":28,"ny":28,"refTime":"2024-07-06T03:00:00:Z","depth":0,"parameterNumber":2,"parameterNumberName":"U-component_of_WINDS"},"data":[0,0,0,0,0,0,0,0,0,0,0,0,0,0,0,0,0,0,0,0,0,0,0,0,0,0,0,0,0,0,0,0,0,0,0,0,0,0,0,0,0,0,0,0,0,0,0,0,0,0,0,0,0,0,0,0,0,0,0.5844,0.5845,0,0.5916,0.5917,0.5918,0.5889,0.5888,0.5886,0.5884,0.5967,0.597,0.5974,0,0,0,0,0,0,0,0,0,0,0,0,0,0.569,0.5693,0.5844,0.5845,0.5845,0.5916,0.5917,0.5918,0.589,0.5888,0.5886,0.5884,0.5965,0.597,0.5974,0,0,0,0,0,0,0,0,0,0,0,0,0,0.5759,0.5694,0.5844,0.584,0.584,0.5916,0.5917,0.5918,0.589,0.5888,0.5885,0.5883,0.5964,0.5969,0.5975,0.6061,0,0,0.5992,0.5995,0,0,0,0,0,0,0,0,0.5755,0.5765,0.5839,0.584,0.5841,0.5891,0.5893,0.5966,0.5891,0.5871,0.5884,0.5881,0.5944,0.5951,0.597,0.6065,0.6068,0.5993,0.5996,0.5999,0.6,0,0,0,0,0,0,0,0.5751,0.5762,0.5873,0.5841,0.5841,0.5837,0.5844,0.5907,0.5922,0.5873,0.5871,0.588,0.5944,0.5965,0.5972,0.6069,0.5993,0.5998,0.6001,0.6003,0.6241,0.6243,0,0,0,0,0,0,0.5744,0.5758,0.587,0.5875,0.5791,0.5842,0.585,0.5878,0.5921,0.5925,0.5882,0.5878,0.5957,0.5966,0.5975,0.608,0.5998,0.6004,0.6007,0.6238,0.6241,0.6244,0,0,0,0,0,0,0.5741,0.5755,0.5867,0.5816,0.583,0.5847,0.5879,0.588,0.5901,0.5927,0.593,0.59,0.5955,0.5967,0.604,0.6082,0.6006,0.6011,0.6234,0.6239,0.6243,0.629,0,0,0,0,0,0,0.5737,0.5754,0.5784,0.5817,0.5833,0.5928,0.5881,0.5884,0.591,0.5906,0.5945,0.5949,0.5954,0.6031,0.6045,0.6089,0.6016,0.6231,0.6236,0.6241,0.6285,0.6295,0.6304,0,0,0,0,0,0.5732,0.5796,0.5786,0.58,0.5871,0.5931,0.594,0.5942,0.5914,0.5946,0.5963,0.5948,0.6075,0.6039,0.6055,0.61,0.6228,0.6235,0.6241,0.628,0.6293,0.6304,0,0,0,0,0,0,0.5772,0.58,0.579,0.5866,0.5896,0.5926,0.5967,0.5955,0.5996,0.5991,0.5994,0.6003,0.6078,0.6096,0.6056,0.6187,0.6148,0.6158,0.6172,0.6185,0.6195,0.6189,0.6021,0,0,0,0,0,0.5789,0.5832,0.5856,0.5921,0.5937,0.5949,0.5975,0.5974,0.6006,0.6019,0.6041,0.6076,0.6124,0.6155,0.62,0.6287,0.6297,0.6326,0.6336,0.6344,0.6353,0.6403,0.6417,0.6266,0.6266,0.6266,0,0,0.5826,0.5847,0.5874,0.593,0.5953,0.6001,0.596,0.6012,0.6048,0.6028,0.6098,0.6115,0.6154,0.6234,0.6271,0.6252,0.6397,0.6353,0.6359,0.6364,0.6411,0.6425,0.6438,0.627,0.6269,0.6269,0,0,0.5918,0.5937,0.5994,0.6017,0.6052,0.606,0.6073,0.6105,0.6116,0.6185,0.6171,0.6216,0.6297,0.6326,0.6351,0.6455,0.6444,0.647,0.6522,0.6571,0.6582,0.6593,0.6632,0.6646,0.6479,0.6479,0.6479,0,0.596,0.6028,0.6025,0.6078,0.6104,0.6085,0.6145,0.6169,0.6218,0.6238,0.6215,0.6318,0.6343,0.643,0.6456,0.6476,0.6494,0.6466,0.658,0.6591,0.6601,0.6638,0.6653,0.6482,0.6481,0.6481,0.6481,0,0.608,0.6128,0.617,0.6215,0.6246,0.6302,0.631,0.6343,0.6339,0.635,0.6423,0.6451,0.6503,0.6523,0.6521,0.6612,0.6599,0.6579,0.6539,0.6618,0.6654,0.6668,0.6486,0.6485,0.6484,0.6483,0,0,0.62,0.6241,0.6257,0.6278,0.6315,0.6353,0.641,0.6458,0.6486,0.6521,0.6571,0.664,0.6622,0.665,0.6651,0.6693,0.6776,0.6668,0.6669,0.6689,0.6881,0.6897,0.6913,0.6768,0.6771,0.6773,0.6878,0,0.6295,0.6391,0.6391,0.6481,0.6527,0.651,0.656,0.6589,0.6602,0.6645,0.666,0.671,0.668,0.6698,0.6739,0.6757,0.6815,0.675,0.6818,0.682,0.6809,0.6931,0.6948,0.7046,0.6892,0.6894,0.6896,0,0.642,0.6456,0.655,0.6581,0.66,0.6644,0.6689,0.6729,0.6764,0.6771,0.6803,0.6797,0.6859,0.6816,0.6902,0.6858,0.6886,0.6899,0.6903,0.6911,0.6863,0.6944,0.7077,0.7092,0.6917,0.6915,0.6914,0,0.65,0.6572,0.6638,0.6656,0.6693,0.6725,0.6743,0.6775,0.6804,0.6844,0.6864,0.6912,0.6938,0.6977,0.6986,0.6954,0.7073,0.7031,0.7083,0.7083,0.7109,0.7108,0.725,0.7125,0.7125,0.7124,0.7124,0,0.6608,0.6666,0.6674,0.6715,0.6781,0.6781,0.6848,0.6864,0.6892,0.6938,0.6927,0.6971,0.698,0.7027,0.7034,0.7106,0.7118,0.7127,0.7129,0.7129,0.7128,0.7148,0.7142,0.7128,0.7127,0.7127,0.7126,0,0.6709,0.6716,0.6787,0.6816,0.6825,0.6872,0.6899,0.694,0.6951,0.7009,0.7023,0.7042,0.7096,0.7109,0.7174,0.718,0.7265,0.7259,0.7252,0.7252,0.7304,0.73,0.7466,0.7488,0.7347,0.7348,0.7349,0,0.6777,0.6822,0.6855,0.6884,0.6902,0.6948,0.6978,0.698,0.7012,0.7055,0.7092,0.7144,0.7187,0.7275,0.7297,0.7348,0.7345,0.7399,0.7352,0.7352,0.7348,0.7345,0.7351,0.7409,0.741,0.7411,0.7412,0,0.69,0.6901,0.6942,0.6985,0.7019,0.7054,0.7087,0.7112,0.712,0.7156,0.721,0.7243,0.7309,0.7363,0.7414,0.7436,0.7427,0.7427,0.7442,0.7443,0.7438,0.7443,0.7278,0.7423,0.7422,0.7421,0.7421,0.742,0.6988,0.7027,0.7057,0.7103,0.7128,0.7159,0.7199,0.7214,0.7258,0.731,0.731,0.737,0.7406,0.7473,0.7498,0.7547,0.7531,0.7552,0.7558,0.7563,0.7569,0.7428,0.7557,0.7556,0.7556,0.7556,0.7556,0,0.7111,0.7129,0.7172,0.7217,0.7254,0.7239,0.7275,0.7309,0.736,0.7393,0.7434,0.7498,0.755,0.7576,0.7629,0.7663,0.7661,0.7677,0.7676,0.7681,0.758,0.7562,0.7679,0.7679,0.7678,0.7678,0.7678,0.7678,0.718,0.7245,0.725,0.733,0.7348,0.7404,0.7426,0.7456,0.7482,0.7553,0.7595,0.761,0.7641,0.7696,0.7745,0.7751,0.7772,0.7791,0.7796,0.7701,0.7688,0.7676,0.766,0.7795,0.7795,0.7893,0.7894,0.7895]},{"header":{"parameterUnit":"m.s-1","parameterCategory":1,"la1":30.2991,"la2":30.254,"lo1":-89.0895,"lo2":-89.0444,"dy":0.0017,"dx":0.0017,"nx":28,"ny":28,"refTime":"2024-07-06T03:00:00:Z","depth":0,"parameterNumber":3,"parameterNumberName":"V-component_of_WINDS"},"data":[0,0,0,0,0,0,0,0,0,0,0,0,0,0,0,0,0,0,0,0,0,0,0,0,0,0,0,0,0,0,0,0,0,0,0,0,0,0,0,0,0,0,0,0,0,0,0,0,0,0,0,0,0,0,0,0,0,0,-0.0522,-0.0523,0,-0.0567,-0.0567,-0.0568,-0.0601,-0.0601,-0.0601,-0.0602,-0.0649,-0.065,-0.0651,0,0,0,0,0,0,0,0,0,0,0,0,0,-0.0469,-0.047,-0.0522,-0.0523,-0.0523,-0.0567,-0.0567,-0.0568,-0.0601,-0.0601,-0.0601,-0.0602,-0.0649,-0.065,-0.0652,0,0,0,0,0,0,0,0,0,0,0,0,0,-0.0501,-0.047,-0.0522,-0.0545,-0.0547,-0.0567,-0.0567,-0.0568,-0.0601,-0.0601,-0.0601,-0.0602,-0.0649,-0.065,-0.0652,-0.0653,0,0,-0.0656,-0.0657,0,0,0,0,0,0,0,0,-0.0499,-0.0503,-0.0541,-0.0543,-0.0546,-0.0579,-0.0566,-0.0597,-0.0601,-0.058,-0.0602,-0.0602,-0.0626,-0.0629,-0.0637,-0.0655,-0.0657,-0.0657,-0.0657,-0.0658,-0.0659,0,0,0,0,0,0,0,-0.0497,-0.0501,-0.054,-0.0542,-0.0545,-0.0554,-0.0559,-0.0572,-0.06,-0.0582,-0.0585,-0.0589,-0.0627,-0.0635,-0.0638,-0.0658,-0.0656,-0.0658,-0.0659,-0.0659,-0.068,-0.068,0,0,0,0,0,0,-0.0491,-0.0499,-0.0539,-0.0541,-0.0523,-0.0555,-0.056,-0.0568,-0.06,-0.0605,-0.0589,-0.0591,-0.0632,-0.0636,-0.064,-0.0644,-0.0658,-0.066,-0.066,-0.0681,-0.068,-0.068,0,0,0,0,0,0,-0.0489,-0.0494,-0.0537,-0.0521,-0.0527,-0.0555,-0.0563,-0.0568,-0.0576,-0.0605,-0.0611,-0.0592,-0.0633,-0.0638,-0.0649,-0.0646,-0.066,-0.0662,-0.0681,-0.068,-0.068,-0.0651,0,0,0,0,0,0,-0.0488,-0.0493,-0.0493,-0.0521,-0.0528,-0.0544,-0.0563,-0.0569,-0.0579,-0.0581,-0.0609,-0.0614,-0.0633,-0.0647,-0.0651,-0.0648,-0.0663,-0.0681,-0.0681,-0.068,-0.0652,-0.0649,-0.0647,0,0,0,0,0,-0.0486,-0.0483,-0.0493,-0.0497,-0.0528,-0.0544,-0.0548,-0.057,-0.0578,-0.0579,-0.0598,-0.0613,-0.0645,-0.0648,-0.0652,-0.065,-0.0682,-0.0681,-0.068,-0.0653,-0.065,-0.0647,0,0,0,0,0,0,-0.0455,-0.0487,-0.0498,-0.0504,-0.0521,-0.055,-0.0551,-0.0565,-0.0581,-0.0583,-0.061,-0.0616,-0.0625,-0.0639,-0.0641,-0.0653,-0.0666,-0.0666,-0.0644,-0.064,-0.0638,-0.0634,-0.0664,0,0,0,0,0,-0.0449,-0.0458,-0.0486,-0.0489,-0.0497,-0.0522,-0.053,-0.0545,-0.0564,-0.0572,-0.0592,-0.061,-0.0625,-0.0633,-0.0648,-0.0654,-0.0662,-0.0655,-0.0653,-0.065,-0.065,-0.0655,-0.0653,-0.0677,-0.0677,-0.0677,0,0,-0.0436,-0.0455,-0.0459,-0.0483,-0.0498,-0.0509,-0.0528,-0.0538,-0.0546,-0.0574,-0.0586,-0.0601,-0.0623,-0.0632,-0.0638,-0.0645,-0.0645,-0.0649,-0.0647,-0.0648,-0.0654,-0.0652,-0.065,-0.0677,-0.0677,-0.0677,0,0,-0.0419,-0.0433,-0.0438,-0.0452,-0.0474,-0.0491,-0.0493,-0.0519,-0.053,-0.0542,-0.0563,-0.0574,-0.0598,-0.0614,-0.0625,-0.0614,-0.063,-0.0619,-0.0604,-0.0609,-0.0607,-0.0606,-0.0603,-0.0601,-0.0618,-0.0618,-0.0618,0,-0.04,-0.0416,-0.0438,-0.0447,-0.0457,-0.0482,-0.0488,-0.0501,-0.0527,-0.0534,-0.0542,-0.0573,-0.059,-0.0603,-0.0601,-0.0609,-0.0611,-0.0615,-0.0606,-0.0604,-0.0603,-0.0601,-0.0599,-0.0617,-0.0617,-0.0617,-0.0617,0,-0.0393,-0.0403,-0.0404,-0.0428,-0.0439,-0.0446,-0.047,-0.0479,-0.0493,-0.051,-0.0523,-0.0544,-0.0564,-0.0569,-0.0583,-0.0585,-0.0588,-0.06,-0.0613,-0.0599,-0.0597,-0.0596,-0.0614,-0.0615,-0.0615,-0.0616,0,0,-0.0356,-0.0393,-0.0393,-0.0404,-0.0431,-0.044,-0.0449,-0.0468,-0.0475,-0.0493,-0.0501,-0.0521,-0.0533,-0.0545,-0.0562,-0.0566,-0.0558,-0.0578,-0.0579,-0.0574,-0.0561,-0.0552,-0.055,-0.0568,-0.0568,-0.0568,-0.056,0,-0.0343,-0.0358,-0.038,-0.0389,-0.0399,-0.0424,-0.0432,-0.045,-0.0466,-0.0478,-0.0497,-0.0511,-0.0524,-0.0532,-0.0538,-0.0557,-0.0555,-0.0558,-0.0577,-0.0578,-0.0571,-0.0549,-0.0539,-0.053,-0.0559,-0.0559,-0.0559,0,-0.0329,-0.0344,-0.0354,-0.0381,-0.0387,-0.0393,-0.0413,-0.0424,-0.0445,-0.0457,-0.0471,-0.0489,-0.0501,-0.0513,-0.053,-0.0532,-0.0541,-0.0552,-0.0552,-0.0555,-0.0567,-0.0551,-0.0528,-0.0526,-0.0558,-0.0558,-0.0558,0,-0.0301,-0.0325,-0.0334,-0.0344,-0.0375,-0.0379,-0.0393,-0.0414,-0.0425,-0.0442,-0.045,-0.0469,-0.0479,-0.0494,-0.0517,-0.0523,-0.0532,-0.0546,-0.0543,-0.0542,-0.0544,-0.0543,-0.0521,-0.0549,-0.0549,-0.0549,-0.0549,0,-0.0284,-0.0289,-0.0323,-0.0328,-0.0335,-0.036,-0.0367,-0.0383,-0.0402,-0.0413,-0.0436,-0.0445,-0.0475,-0.0488,-0.0507,-0.0519,-0.0523,-0.0534,-0.0539,-0.0532,-0.053,-0.0538,-0.0539,-0.0549,-0.0549,-0.0549,-0.0549,0,-0.0254,-0.0276,-0.0288,-0.0317,-0.0325,-0.0329,-0.0354,-0.0361,-0.0379,-0.0392,-0.0396,-0.0425,-0.0441,-0.0466,-0.0491,-0.0503,-0.0513,-0.0521,-0.0505,-0.0508,-0.0504,-0.0504,-0.0486,-0.0485,-0.0514,-0.0513,-0.0513,0,-0.0241,-0.0246,-0.0275,-0.0283,-0.0296,-0.0309,-0.0319,-0.0345,-0.0355,-0.0381,-0.0385,-0.0404,-0.042,-0.0446,-0.0469,-0.0489,-0.0497,-0.049,-0.05,-0.0493,-0.0498,-0.0497,-0.0498,-0.0487,-0.0487,-0.0486,-0.0486,0,-0.0217,-0.0228,-0.0242,-0.026,-0.0272,-0.0288,-0.0305,-0.031,-0.034,-0.0351,-0.0368,-0.038,-0.0405,-0.0424,-0.0446,-0.0462,-0.0479,-0.0482,-0.0483,-0.0476,-0.0467,-0.0472,-0.0498,-0.0483,-0.0483,-0.0483,-0.0483,-0.0483,-0.0195,-0.0201,-0.0222,-0.0238,-0.0253,-0.0269,-0.0277,-0.0296,-0.031,-0.0332,-0.0347,-0.0363,-0.0387,-0.0418,-0.0433,-0.0447,-0.0455,-0.0455,-0.0455,-0.0455,-0.0453,-0.0464,-0.0452,-0.0452,-0.0452,-0.0452,-0.0452,0,-0.0172,-0.0187,-0.0201,-0.0224,-0.0236,-0.0251,-0.0271,-0.028,-0.0294,-0.0314,-0.0329,-0.035,-0.0368,-0.0393,-0.0414,-0.0421,-0.0429,-0.0425,-0.0425,-0.0428,-0.0445,-0.0442,-0.0418,-0.0418,-0.0418,-0.0418,-0.0418,-0.0418,-0.0161,-0.0171,-0.0185,-0.0204,-0.022,-0.0235,-0.0246,-0.0261,-0.0277,-0.0298,-0.0313,-0.0329,-0.0352,-0.0374,-0.0392,-0.0399,-0.0406,-0.04,-0.0409,-0.0424,-0.0427,-0.043,-0.0428,-0.0401,-0.0401,-0.0392,-0.0391,-0.0391]}]]